Regional Weather Roundup
Issued by NWS

Home | Current Version | Previous Version | Graphics & Text | Print | Product List | Glossary On
Versions: 1 2 3 4 5 6 7 8 9 10 11 12 13 14 15 16 17 18 19 20 21 22 23 24 25 26 27 28 29 30 31 32 33 34 35 36 37 38 39 40 41 42 43 44 45 46 47 48 49 50
000
ASUS43 KLMK 090410
RWRKY
KENTUCKY REGIONAL WEATHER ROUNDUP
NATIONAL WEATHER SERVICE LOUISVILLE KY
1100 PM EST THU DEC 08 2016

NOTE "FAIR" INDICATES FEW OR NO CLOUDS BELOW 12,000 FEET
WITH NO SIGNIFICANT WEATHER AND/OR OBSTRUCTIONS TO VISIBILITY.

KYZ001>023-026-027-061>063-070>075-090500-
WESTERN AND SOUTH CENTRAL KENTUCKY

CITY           SKY/WX    TMP DP  RH WIND       PRES   REMARKS
PADUCAH        CLEAR     25  13  60 N7        30.56R WCI  17
HENDERSON      CLOUDY    27  12  54 NW13      30.54S WCI  16
OWENSBORO      CLOUDY    27  16  63 NW16      30.53S WCI  15
HOPKINSVILLE   CLEAR     25  15  65 N5        30.52S WCI  19
BOWLING GREEN  CLEAR     26  15  63 VRB3      30.51S
GLASGOW        CLEAR     26  15  64 NW8       30.49R WCI  18
$$

KYZ024-025-028>034-038-045-046-053-090500-
NORTH CENTRAL KENTUCKY

CITY           SKY/WX    TMP DP  RH WIND       PRES   REMARKS
LOUISVILLE/SDF FLURRIES  26  12  55 NW14      30.50R WCI  14
LOUISVILLE/LOU CLOUDY    26  12  55 NW16      30.50R WCI  14
FORT KNOX      CLOUDY    25  13  62 NW12      30.47R WCI  14
$$

KYZ035>037-039>044-047>052-055>060-089>105-090500-
NORTHEAST KENTUCKY

CITY           SKY/WX    TMP DP  RH WIND       PRES   REMARKS
LEXINGTON      CLOUDY    24  13  62 NW12      30.43R WCI  13
COVINGTON      FLURRIES  23  14  68 W12G22    30.42R WCI  12
FRANKFORT      CLOUDY    25  13  60 NW9       30.45R WCI  15
$$

KYZ054-064>069-076>088-106>120-090500-
SOUTHEAST KENTUCKY

CITY           SKY/WX    TMP DP  RH WIND       PRES   REMARKS
JACKSON        MOCLDY    25  15  66 VRB6G18   30.37R WCI  18
LONDON         CLEAR     24  14  65 W8        30.41R WCI  15
SOMERSET       CLOUDY    27  18  69 W5        30.46R WCI  21
MIDDLESBORO    CLEAR     28  15  58 N9G16     30.41S WCI  19
MONTICELLO     CLOUDY    26  18  71 NW14      30.47R WCI  14
$$





USA.gov is the U.S. government's official web portal to all federal, state and local government web resources and services.